{"data":{"norad_id":46355,"intl_designator":"2020-062AG","name":"STARLINK-1661","alt_names":[],"object_type":"PAYLOAD","status":"ACTIVE","operator":null,"country":"US","launch_date":"2020-09-03","launch_site_code":"AFETR","launch_vehicle":null,"mission":null,"orbit_class":"UNKNOWN","rcs_meters":null,"size_class":null,"mass_kg":null,"dimensions":null,"purposes":["comms"],"wikipedia_slug":null,"has_3d_model":false,"image_url":null,"decayed_at":null,"tle_current":{"epoch":"2026-05-24T22:21:12.129696Z","epoch_age_seconds":76866,"freshness":"FRESH","line1":"1 46355U 20062AG  26144.93139039  .00048413  00000+0  13347-2 0  9996","line2":"2 46355  53.1561  15.1873 0004579 129.8885 230.2521 15.36658201316098","mean_motion":15.36658201,"eccentricity":0.0004579,"inclination_deg":53.1561,"raan_deg":15.1873,"arg_perigee_deg":129.8885,"mean_anomaly_deg":230.2521,"bstar":0.0013347,"rev_number":31609,"period_min":93.709843806704,"perigee_km":452.87026064544,"apogee_km":459.12896295453,"semimajor_km":6834.1366118,"source":"CELESTRAK","updated_at":"2026-05-25T13:38:16.472862Z"}}}